TimeChST,TemperatureF,Dew PointF,Humidity,Sea Level PressureIn,VisibilityMPH,Wind Direction,Wind SpeedMPH,Gust SpeedMPH,PrecipitationIn,Events,Conditions,WindDirDegrees,DateUTC
12:54 AM,82.9,75.9,79,29.72,10.0,SSE,8.1,-,N/A,,Scattered Clouds,150,2012-10-03 14:54:00
1:54 AM,82.0,77.0,85,29.70,10.0,SSE,6.9,-,0.00,Rain,Light Rain,160,2012-10-03 15:54:00
2:54 AM,82.9,77.0,82,29.70,10.0,SSE,6.9,-,0.00,,Scattered Clouds,150,2012-10-03 16:54:00
3:54 AM,82.9,75.9,79,29.70,10.0,SSE,9.2,-,N/A,,Scattered Clouds,150,2012-10-03 17:54:00
4:54 AM,79.0,75.9,90,29.72,10.0,ESE,4.6,-,0.10,,Overcast,110,2012-10-03 18:54:00
5:54 AM,80.1,75.0,85,29.73,10.0,SE,6.9,-,N/A,,Overcast,130,2012-10-03 19:54:00
6:54 AM,80.1,75.9,87,29.74,10.0,East,5.8,-,N/A,,Mostly Cloudy,100,2012-10-03 20:54:00
7:54 AM,82.0,75.9,82,29.74,10.0,East,8.1,-,N/A,,Partly Cloudy,100,2012-10-03 21:54:00
8:54 AM,84.0,75.9,76,29.76,10.0,SE,9.2,-,N/A,,Scattered Clouds,130,2012-10-03 22:54:00
9:54 AM,86.0,77.0,74,29.76,10.0,SE,11.5,-,N/A,,Scattered Clouds,140,2012-10-03 23:54:00
10:54 AM,87.1,78.1,74,29.75,10.0,SE,10.4,-,N/A,,Scattered Clouds,130,2012-10-04 00:54:00
11:15 AM,87.8,78.8,75,29.69,10.0,SE,11.5,-,N/A,,Mostly Cloudy,140,2012-10-04 01:15:00
11:35 AM,87.8,77.0,70,29.68,10.0,SE,10.4,-,N/A,,Scattered Clouds,130,2012-10-04 01:35:00
11:54 AM,86.0,77.0,74,29.73,10.0,SE,11.5,-,N/A,,Mostly Cloudy,130,2012-10-04 01:54:00
12:54 PM,88.0,77.0,70,29.71,10.0,SE,10.4,-,N/A,,Partly Cloudy,130,2012-10-04 02:54:00
1:54 PM,88.0,77.0,70,29.70,10.0,SE,11.5,-,N/A,,Scattered Clouds,130,2012-10-04 03:54:00
2:54 PM,86.0,77.0,74,29.69,10.0,SE,9.2,-,0.00,,Scattered Clouds,130,2012-10-04 04:54:00
3:54 PM,86.0,77.0,74,29.69,10.0,SE,8.1,-,N/A,,Partly Cloudy,140,2012-10-04 05:54:00
4:54 PM,86.0,77.0,74,29.70,10.0,SE,9.2,-,N/A,,Scattered Clouds,130,2012-10-04 06:54:00
5:54 PM,82.9,75.9,79,29.71,10.0,East,5.8,-,N/A,,Scattered Clouds,100,2012-10-04 07:54:00
6:54 PM,82.9,75.9,79,29.73,10.0,ESE,5.8,-,N/A,,Clear,120,2012-10-04 08:54:00
7:50 PM,82.4,77.0,84,29.68,10.0,ESE,5.8,-,N/A,,Mostly Cloudy,120,2012-10-04 09:50:00
7:54 PM,82.9,77.0,82,29.75,10.0,ESE,6.9,-,N/A,,Mostly Cloudy,120,2012-10-04 09:54:00
8:10 PM,82.4,77.0,84,29.69,10.0,SE,6.9,-,N/A,,Mostly Cloudy,130,2012-10-04 10:10:00
8:20 PM,82.4,77.0,84,29.69,10.0,SE,8.1,-,N/A,,Mostly Cloudy,130,2012-10-04 10:20:00
8:47 PM,82.4,78.8,89,29.70,10.0,SE,6.9,-,0.01,,Mostly Cloudy,130,2012-10-04 10:47:00
8:54 PM,82.0,77.0,85,29.77,10.0,SE,8.1,-,0.01,,Scattered Clouds,130,2012-10-04 10:54:00
9:54 PM,82.0,75.9,82,29.77,10.0,SE,8.1,-,N/A,,Scattered Clouds,140,2012-10-04 11:54:00
10:54 PM,82.9,75.9,79,29.76,10.0,SE,8.1,-,N/A,,Scattered Clouds,140,2012-10-04 12:54:00
11:54 PM,81.0,75.9,85,29.75,10.0,ESE,4.6,-,N/A,,Partly Cloudy,110,2012-10-04 13:54:00